SCP
0 0 0 0 0 0 0 0 0 0 0 0 0 0 0 0 0 0 0 0 0 0 0 0 0 0 0 0 0 0 0 0 0 0 0 0 0 0 0 0 0 0 0
0 0 0 0 0 0 0 0 0 0 0 0 0 0 0 0 0 0 0 0 0 0 0 0 0 0 0 0 0 0 0 0 0 0 0 0 0 0 0 0 0 0 0
0 0 0 0 0 0 0 0 0 0 0 0 0 0 0 0 0 0 0 0 0 0 0 0 0 0 0 0 0 0 0 0 0 0 0 0 0 0 0 0 0 0 0
0 0 0 0 0 0 0 0 0 0 0 0 0 0 0 0 0 0 0 0 0 0 0 0 0 0 -0 -0 0 0 0 0 0 0 0 0 0 0 0 0 0 0 0
0 0 0 0 0 0 0 0 0 0 0 0 0 0 0 0 0 0 0 0 0 0 0 0 0 -0 -0 -0 -0 -0 0 0 0 0 0 0 0 0 0 0 0 0 0
0 0 0 0 0 0 0 0 0 0 0 0 0 0 0 0 0 0 -0 0 0 0 -0 -0 -0 -0 -0 -0 -0 -0 -0 -0 -0 0 0 0 0 0 0 0 0 0 0
0 0 0 0 0 0 0 0 0 0 0 0 0 0 0 0 0 0 -0 0 0 -0 -0 -0 -0 -0 -0 -0 0 0 0 0 0 0 0 0 0 0 0 0 0 0 0
0 0 0 0 0 0 0 0 0 0 0 0 0 0 0 0 0 0 0 -0 -0 -0 -0 -0 -0 -0 -0 0 0 0 0 0 0 0 0 0 0 0 0 0 0 0 0
0 0 0 0 0 0 0 0 0 0 0 0 0 0 0 0 0 0 0 0 -0 0 0 0 0 0 0 0 0 0 0 0 0 0 0 0 0 0 0 0 0 0 0
0 0 0 0 0 0 0 0 0 0 0 0 0 0 0 0 0 0 0 0 0 0 0 0 0 0 0 0 0 0 0 0 0 0 0 0 0 0 0 0 0 0 0
0 0 0 0 0 0 0 0 0 0 0 0 0 0 0 0 0 0 0 0 0 0 0 0 0 0 0 0 0 0 0 0 0 0 0 0 0 0 0 0 0 0 0
0 0 0 0 0 0 0 0 0 0 0 0 0 0 0 0 0 0 0 0 0 0 0 0 0 0 0 0 0 0 0 0 0 0 0 0 0 0 0 0 0 0 0
0 0 0 0 0 0 0 0 0 0 0 0 0 0 0 0 0 0 0 0 0 0 0 0 0 0 0 0 0 0 0 0 0 0 0 0 0 0 0 0 0 0 0
0 0 0 0 0 0 0 0 0 0 0 0 0 0 0 0 0 0 0 0 0 0 0 0 0 0 0 0 0 0 0 0 0 0 0 0 0 0 0 0 0 0 0
0 0 0 0 0 0 0 0 0 0 0 0 0 0 0 0 0 0 0 0 0 0 0 0 0 0 0 0 0 0 0 0 0 0 0 0 0 0 0 0 0 0 0
0 0 0 0 0 0 0 0 0 0 0 0 0 0 0 0 0 -0 0 0 0 0 0 0 0 0 0 0 0 0 0 0 0 0 0 0 0 0 0 0 0 0 0
0 0 0 0 0 0 0 0 0 0 0 0 0 0 0 0 0 0 0 0 0 0 0 0 0 0 0 0 0 0 0 0 0 0 0 0 0 0 0 0 0 0 0
0 0 0 0 0 0 0 0 0 0 0 0 0 0 0 0 0 0 0 0 0 0 0 0 0 0 0 0 0 0 0 0 0 0 0 0 0 0 0 0 0 0 0
0 0 0 0 0 0 0 0 0 0 0 0 0 0 0 0 0 0 0 0 0 0 0 0 0 0 0 0 0 0 -0 -0 -0 0 0 0 0 0 0 0 0 0 0
0 0 0 0 0 0 0 0 0 0 0 0 0 0 0 0 0 0 0 0 0 0 0 0 0 0 0 0 0 0 -0 -0 -0 -0 0 0 0 0 0 0 0 0 0
0 0 0 0 0 0 0 0 0 0 0 0 0 0 0 0 0 0 0 0 0 0 0 0 0 0 0 0 0 0 -0 -0 -0 -0 -0 0 0 0 0 0 0 0 0
0 0 0 0 0 0 0 0 0 0 0 0 0 0 0 0 0 0 0 0 0 0 0 0 0 0 0 0 0 0 0 -0 -0 -0 -0 0 0 0 0 0 0 0 0
0 0 0 0 0 0 0 0 0 0 0 0 0 0 0 0 0 0 0 0 0 0 0 0 0 0 0 0 0 0 0 0 -0 -0 -0 -0 0 0 0 0 0 0 0
0 0 0 0 0 0 0 0 0 0 0 0 0 0 0 0 0 0 0 0 0 0 0 0 0 0 0 0 0 0 0 0 -0 -0 -0 0 0 0 0 0 0 0 0
0 0 0 0 0 0 0 0 0 0 0 0 0 0 0 0 0 0 0 0 0 0 0 0 0 0 0 0 0 0 0 0 0 0 0 0 0 0 0 0 0 0 0
0 0 0 0 0 0 0 0 0 0 0 0 0 0 0 0 0 0 0 0 0 0 0 0 0 0 0 0 0 0 0 0 0 0 0 0 0 0 0 0 0 0 0
Wind_Speed
10 10 11 11 12 13 13 14 13 13 13 13 13 13 13 12 12 11 12 13 13 13 12 13 13 13 10 9 9 9 10 10 13 10 10 9 10 7 3 4 4 5 8
11 11 12 12 13 13 13 12 12 12 11 11 11 11 11 11 11 12 11 12 13 13 13 13 13 11 12 10 9 10 10 10 11 13 9 7 6 4 5 6 5 6 7
12 13 13 13 13 12 12 11 11 11 10 10 10 10 11 11 11 11 11 12 13 13 13 13 13 12 12 10 11 10 9 10 9 9 9 5 2 3 7 8 8 6 7
13 13 13 12 12 11 11 10 10 10 10 10 10 11 11 11 10 12 13 14 13 13 12 11 12 12 13 13 11 11 10 10 9 9 7 5 3 5 7 7 7 6 7
12 12 12 11 11 10 10 9 9 9 10 10 11 11 11 9 12 16 16 16 15 13 12 11 11 14 18 14 12 11 10 9 7 7 7 5 5 8 7 6 9 8 9
11 11 11 10 10 10 9 9 9 9 9 10 10 11 12 10 15 20 19 17 15 13 11 12 12 13 16 20 22 21 17 12 9 7 6 7 8 9 8 9 9 7 6
9 9 10 10 10 10 10 9 9 9 10 10 11 12 13 12 15 20 24 19 14 11 11 11 11 12 16 15 18 20 16 16 15 8 7 9 11 12 12 10 7 9 10
9 9 9 10 10 9 9 9 10 9 10 10 11 12 11 10 14 20 27 17 12 12 11 10 12 14 15 18 16 11 7 8 12 9 6 10 12 12 11 13 15 14 12
9 9 9 9 9 9 9 10 9 9 10 10 11 11 12 11 13 18 25 14 12 14 12 11 14 15 19 22 13 8 3 2 6 8 8 13 17 18 17 14 13 13 12
9 9 8 8 8 9 9 9 9 9 10 11 11 12 13 14 13 16 23 12 13 12 11 12 15 19 21 19 11 8 5 4 7 11 14 18 17 17 15 12 11 14 13
7 7 7 7 8 9 9 9 10 10 10 10 11 11 12 13 15 16 20 14 14 13 10 10 11 22 19 15 12 9 9 7 10 13 14 14 12 10 8 7 7 8 10
6 6 6 7 8 9 10 9 8 9 10 10 10 10 9 11 13 15 17 16 18 13 10 10 11 20 15 13 10 13 14 10 9 11 11 11 11 10 9 10 11 10 9
7 7 7 8 8 9 10 9 8 8 9 9 9 9 9 10 12 15 15 16 18 13 10 14 16 17 12 9 13 14 10 8 8 9 10 11 10 12 12 12 13 12 11
8 7 7 7 8 8 7 8 8 9 11 11 11 11 10 11 13 13 13 13 15 13 11 12 12 12 12 10 9 9 9 9 9 10 10 11 11 11 11 10 10 9 10
8 7 7 7 7 7 6 4 6 7 7 9 12 11 10 11 14 18 15 13 14 14 12 7 9 10 10 9 7 7 7 8 9 9 9 10 10 11 10 8 8 10 11
7 7 7 7 7 8 8 4 4 3 7 5 7 10 10 10 14 17 19 17 17 20 11 9 10 10 10 9 7 7 7 8 8 8 9 9 10 11 10 8 9 11 11
7 7 8 8 8 9 9 9 7 3 8 6 8 10 11 11 13 17 19 16 12 15 9 9 9 9 9 9 8 6 7 8 8 8 9 9 10 10 9 9 10 11 11
9 7 8 8 8 9 9 9 8 9 8 6 7 12 13 11 12 14 17 13 9 10 10 9 9 9 8 8 7 5 5 7 8 8 8 9 9 9 9 9 10 12 11
10 10 8 8 8 9 9 9 9 10 9 9 10 11 13 11 9 12 12 10 9 9 9 9 8 8 8 8 7 5 5 7 9 8 8 9 9 9 8 9 10 11 11
7 7 9 9 9 9 9 10 10 10 11 10 10 11 11 10 10 11 10 9 8 8 8 8 8 8 8 8 7 6 4 5 8 9 8 8 8 8 9 10 10 10 10
7 7 6 8 10 10 10 10 10 11 11 10 9 11 13 9 9 11 10 9 8 8 7 7 6 7 7 7 7 6 5 4 5 7 8 7 8 8 8 8 9 10 10
7 8 9 9 9 10 10 10 11 11 12 12 10 10 11 10 9 9 9 9 8 7 6 6 5 5 5 6 6 6 5 4 4 5 6 8 8 9 8 8 9 10 11
8 9 9 9 9 8 9 11 11 11 11 11 11 10 10 10 10 10 9 9 8 7 7 6 5 6 5 5 5 5 4 3 3 5 7 8 9 9 8 9 11 12 12
9 10 10 9 9 10 11 11 11 11 11 11 11 10 10 10 10 10 10 9 8 8 7 6 6 8 10 7 5 4 4 3 1 3 9 10 9 9 9 9 10 13 12
9 9 9 10 10 10 10 11 11 11 11 11 11 11 11 11 11 10 10 10 10 9 10 9 7 8 10 11 9 7 6 6 6 3 7 9 10 10 9 10 10 12 12
9 9 9 9 9 10 10 10 11 11 11 11 11 11 11 11 11 11 10 11 10 10 10 8 12 13 13 10 10 9 8 8 8 7 4 8 9 9 9 8 11 11 13
Wind_Direction
340 335 328 324 321 316 313 317 319 316 313 307 307 308 309 309 307 302 301 304 302 299 295 290 286 281 276 272 269 265 263 261 268 271 271 280 280 261 183 125 94 69 51
334 328 326 324 323 322 323 324 319 314 311 311 310 309 310 309 310 311 313 310 303 299 296 294 291 286 279 274 268 263 259 254 257 265 266 269 266 229 145 115 95 76 60
334 330 331 329 329 327 325 323 318 315 313 310 309 314 314 313 314 316 314 308 302 299 297 295 292 287 283 278 273 268 260 254 244 249 256 250 221 149 125 107 90 70 58
336 334 334 334 331 329 327 324 320 318 314 314 317 314 314 317 331 335 321 308 299 296 295 295 295 291 287 285 282 276 269 257 241 237 240 227 176 145 134 121 97 69 55
340 340 341 337 333 328 327 327 324 320 317 319 320 325 334 340 4 343 325 311 304 301 303 306 302 297 294 296 293 285 276 261 240 224 220 198 163 154 143 123 110 97 69
344 343 339 333 328 326 328 327 326 328 331 336 344 345 343 4 2 343 332 316 306 306 312 315 312 307 312 306 299 290 275 258 236 214 203 183 164 150 134 132 130 124 90
344 340 332 329 325 324 322 327 339 345 350 350 349 348 345 12 5 344 337 318 307 315 318 320 321 323 318 315 305 293 272 245 231 214 193 173 160 152 141 137 114 96 96
343 337 333 332 330 333 340 353 355 353 352 350 352 353 350 15 11 349 339 320 326 328 328 334 336 330 327 324 311 298 267 222 206 204 187 167 155 145 136 121 113 103 93
348 346 345 345 346 354 1 360 356 350 351 350 0 359 356 3 11 353 344 330 338 333 337 351 348 338 331 332 330 330 335 171 171 161 137 129 127 127 128 124 124 117 109
358 357 357 359 359 360 358 353 353 349 354 355 2 2 0 356 1 355 345 341 342 335 340 350 349 341 337 343 351 358 22 73 118 116 113 113 117 121 123 129 133 127 123
356 0 2 357 353 352 348 349 348 349 353 358 3 4 359 351 353 358 347 348 343 332 339 349 342 337 342 355 9 24 31 69 100 109 110 111 111 109 98 85 89 117 126
342 347 351 348 346 346 340 341 347 350 352 0 1 2 356 351 354 354 344 342 339 335 343 350 338 335 346 15 29 32 38 62 91 103 108 112 111 105 95 90 89 89 103
326 335 339 340 341 346 342 347 356 5 0 359 358 1 358 354 354 354 346 341 338 340 347 349 340 343 357 27 36 38 46 61 80 92 100 102 102 103 99 95 95 99 105
319 324 324 329 343 354 354 3 9 13 6 1 2 2 1 358 359 357 350 350 347 350 348 341 342 4 17 24 41 50 56 62 75 85 93 100 104 104 103 107 111 111 108
324 322 323 336 352 340 8 25 15 49 33 12 9 0 5 1 356 349 349 352 350 345 335 349 13 18 16 16 41 60 67 73 78 85 93 100 104 107 109 113 115 115 112
339 347 344 350 355 350 355 20 128 97 144 114 60 19 18 9 343 347 350 343 339 337 352 16 16 16 14 10 20 54 71 75 81 89 95 100 105 110 115 118 120 118 116
347 359 344 357 356 356 357 352 1 142 172 137 79 42 15 3 353 349 345 337 346 348 16 20 13 10 9 8 11 38 71 80 83 89 97 104 109 114 118 121 122 122 121
355 21 353 2 360 359 357 354 359 1 6 14 46 44 16 8 3 353 341 344 12 16 16 14 10 5 5 5 7 27 72 89 90 91 96 102 108 113 117 122 126 127 125
19 9 1 3 4 6 3 2 6 8 8 10 10 14 7 1 4 1 352 10 11 11 9 7 6 2 1 3 6 22 69 98 106 104 101 103 107 111 116 121 121 120 119
62 40 355 4 14 12 11 10 11 13 15 17 20 12 360 2 8 6 7 9 7 6 4 2 360 1 0 4 9 20 59 94 112 115 113 110 111 113 118 123 124 120 112
30 43 16 19 24 16 13 14 18 22 21 21 27 28 1 5 9 4 2 2 359 358 358 356 356 358 1 4 9 20 49 85 97 108 114 118 120 122 128 131 126 120 122
30 34 31 30 31 21 11 22 27 28 25 23 18 23 12 11 12 6 360 356 351 349 349 350 353 356 360 2 6 15 42 87 114 121 123 125 127 132 137 137 134 130 129
38 38 39 35 32 30 25 32 33 31 28 24 19 15 13 11 7 1 355 349 346 347 349 353 356 360 3 8 13 16 31 62 115 143 132 127 129 135 139 138 136 135 137
47 44 42 38 33 32 33 36 37 34 30 25 20 16 13 9 6 359 353 349 351 354 357 0 2 6 12 15 19 26 35 38 55 126 126 127 128 132 135 137 138 140 137
51 49 46 42 35 35 37 39 40 37 32 28 22 18 13 10 7 2 358 358 1 5 9 11 9 11 19 28 35 45 49 47 26 29 120 122 126 129 133 137 138 140 140
56 53 50 47 41 36 37 40 42 41 37 32 26 22 16 11 7 4 2 6 9 12 15 17 21 25 25 31 39 45 51 49 34 18 83 115 121 128 133 136 140 142 145